Total_Precipitation_Accumulation
0.71 0.68 0.65 0.72 0.72 0.65 0.63 0.70 0.84 0.97 1.09 1.23 1.38 1.59 1.73 1.82 1.83 1.81 1.84 1.75 1.54 1.60 1.73 1.72 1.94 2.00 1.99 2.03 2.00 2.18 2.24 1.96 1.81 2.18 2.14 1.74 1.41 1.27 1.34 1.43 1.47 1.59 1.61
0.58 0.57 0.49 0.51 0.54 0.56 0.60 0.66 0.81 1.02 1.20 1.41 1.58 1.74 2.06 2.21 2.21 2.26 2.17 2.09 1.95 1.95 1.88 1.99 2.23 2.28 2.39 2.50 2.36 2.53 2.66 2.34 2.05 2.51 3.02 2.61 2.13 1.48 1.23 1.34 1.50 1.68 1.72
0.47 0.49 0.43 0.40 0.39 0.44 0.51 0.61 0.72 0.93 1.21 1.49 1.71 1.88 2.12 2.38 2.49 2.37 2.33 2.31 2.35 2.38 2.25 2.22 2.38 2.42 2.51 2.72 2.76 2.71 2.86 2.83 2.47 2.43 3.02 3.03 2.64 2.17 1.60 1.41 1.48 1.67 1.79
0.46 0.44 0.42 0.42 0.40 0.44 0.52 0.63 0.74 0.88 1.06 1.30 1.60 1.86 2.13 2.44 2.48 2.42 2.40 2.43 2.50 2.55 2.48 2.44 2.52 2.57 2.56 2.67 2.72 2.71 3.00 3.24 3.02 2.69 2.46 2.44 2.47 2.51 2.13 1.71 1.55 1.67 1.79
0.48 0.44 0.43 0.44 0.46 0.49 0.55 0.70 0.82 0.94 1.10 1.34 1.62 1.92 2.10 2.28 2.45 2.45 2.33 2.26 2.34 2.31 2.22 2.33 2.49 2.53 2.56 2.57 2.73 2.85 3.11 3.17 3.11 2.99 2.81 2.63 2.46 2.10 2.18 2.11 1.84 1.77 1.70
0.48 0.51 0.54 0.53 0.52 0.57 0.67 0.82 0.95 1.09 1.22 1.32 1.42 1.56 1.75 2.02 2.17 2.31 2.29 2.26 2.27 2.16 2.05 2.13 2.25 2.35 2.42 2.39 2.44 2.62 2.81 3.07 3.20 3.12 2.93 2.87 2.80 2.58 2.39 2.09 1.94 2.01 1.88
0.58 0.66 0.73 0.70 0.66 0.69 0.83 0.96 1.06 1.12 1.16 1.13 1.16 1.25 1.40 1.63 1.77 1.89 2.06 2.11 2.14 2.12 2.10 2.02 2.07 2.16 2.21 2.30 2.48 2.49 2.57 2.77 2.98 2.98 2.92 2.91 2.75 2.65 2.64 2.39 2.02 1.94 1.86
0.69 0.84 0.96 0.98 0.91 0.90 0.94 0.96 1.04 1.00 0.99 1.02 1.05 1.12 1.17 1.32 1.42 1.49 1.62 1.74 1.73 1.72 1.70 1.75 1.85 2.01 2.09 2.19 2.36 2.44 2.45 2.50 2.56 2.58 2.74 2.84 2.74 2.53 2.45 2.44 2.47 2.21 1.99
0.83 1.00 1.19 1.23 1.14 1.07 1.02 1.04 1.11 1.06 0.98 1.00 1.08 1.10 1.11 1.10 1.09 1.15 1.14 1.21 1.28 1.30 1.33 1.40 1.54 1.75 1.88 1.93 2.07 2.26 2.26 2.31 2.32 2.38 2.45 2.48 2.54 2.41 2.22 2.18 2.28 2.41 2.23
1.04 1.19 1.32 1.33 1.28 1.31 1.27 1.12 1.11 1.16 1.08 1.17 1.19 1.11 1.05 1.00 0.99 1.04 1.06 1.05 1.13 1.22 1.29 1.30 1.36 1.50 1.59 1.68 1.84 1.99 2.09 2.15 2.12 2.09 2.16 2.21 2.24 2.26 2.23 2.20 2.21 2.22 2.19
1.26 1.30 1.38 1.37 1.26 1.24 1.22 1.21 1.16 1.15 1.17 1.19 1.21 1.08 1.06 1.08 1.06 1.02 1.04 1.10 1.16 1.25 1.28 1.33 1.35 1.36 1.44 1.49 1.59 1.73 1.87 1.90 1.92 1.81 1.84 1.97 2.04 2.23 2.26 2.23 2.19 2.18 2.10
1.26 1.25 1.34 1.30 1.18 1.16 1.06 1.11 1.18 1.18 1.26 1.28 1.20 1.12 1.16 1.18 1.20 1.16 1.11 1.12 1.15 1.14 1.20 1.30 1.25 1.23 1.27 1.35 1.46 1.56 1.61 1.70 1.67 1.58 1.60 1.73 1.79 1.95 2.06 2.16 2.07 2.07 2.04
1.02 0.97 1.03 1.12 1.09 1.07 0.99 1.08 1.15 1.21 1.23 1.29 1.29 1.18 1.09 1.12 1.15 1.16 1.08 1.04 1.04 1.07 1.16 1.27 1.36 1.26 1.16 1.25 1.34 1.37 1.39 1.40 1.35 1.34 1.40 1.47 1.54 1.67 1.79 1.89 1.97 1.99 1.93
0.79 0.74 0.73 0.81 0.83 0.86 0.92 0.99 1.13 1.29 1.31 1.32 1.29 1.25 1.19 1.22 1.15 1.07 1.02 0.99 0.95 0.89 0.94 1.08 1.18 1.21 1.16 1.11 1.11 1.14 1.29 1.28 1.18 1.09 1.09 1.11 1.16 1.29 1.44 1.55 1.71 1.87 1.99
0.58 0.59 0.58 0.60 0.62 0.66 0.75 0.82 0.93 1.14 1.27 1.37 1.37 1.29 1.23 1.16 1.11 1.02 0.92 0.92 0.83 0.80 0.85 1.00 1.15 1.19 1.18 1.19 1.19 1.11 1.15 1.20 1.19 1.11 0.99 0.92 0.92 1.03 1.12 1.21 1.48 1.69 1.85
0.40 0.41 0.46 0.48 0.53 0.57 0.65 0.66 0.78 0.95 1.08 1.15 1.20 1.28 1.26 1.10 1.00 0.91 0.82 0.78 0.75 0.74 0.73 0.81 0.96 1.10 1.07 1.25 1.29 1.21 1.11 1.11 1.10 1.09 1.06 1.04 1.00 0.89 0.84 0.90 1.07 1.31 1.52
0.36 0.35 0.36 0.40 0.47 0.56 0.59 0.64 0.75 0.89 0.94 1.01 1.04 1.10 1.11 0.97 0.90 0.80 0.72 0.70 0.69 0.71 0.69 0.74 0.87 1.01 1.19 1.26 1.10 1.17 1.16 1.10 1.10 1.06 1.06 1.09 1.06 1.10 0.98 0.92 0.90 0.92 1.09
0.27 0.32 0.30 0.31 0.35 0.43 0.54 0.67 0.72 0.74 0.76 0.84 0.88 0.88 0.89 0.85 0.80 0.70 0.68 0.69 0.71 0.74 0.74 0.77 0.82 0.89 1.13 1.23 1.08 1.26 1.26 1.23 1.20 1.16 1.17 1.22 1.23 1.17 1.28 1.23 1.10 1.01 1.00
0.19 0.23 0.23 0.23 0.25 0.28 0.31 0.37 0.44 0.49 0.53 0.64 0.71 0.75 0.77 0.76 0.72 0.68 0.76 0.80 0.78 0.77 0.76 0.75 0.75 0.77 0.88 1.01 0.95 1.07 1.18 1.30 1.30 1.17 1.14 1.18 1.19 1.39 1.45 1.31 1.25 1.16 1.10
0.11 0.15 0.18 0.18 0.17 0.18 0.20 0.24 0.30 0.36 0.40 0.47 0.54 0.61 0.68 0.70 0.75 0.88 0.98 1.01 0.95 0.85 0.78 0.74 0.70 0.70 0.72 0.89 0.78 0.86 0.98 1.16 1.31 1.26 1.18 1.33 1.28 1.29 1.25 1.16 1.32 1.27 1.15
0.09 0.11 0.13 0.14 0.16 0.17 0.17 0.20 0.26 0.27 0.31 0.31 0.38 0.49 0.64 0.74 0.85 1.01 1.05 1.03 0.97 0.85 0.75 0.70 0.67 0.65 0.72 0.91 0.86 0.89 0.92 1.04 1.16 1.19 1.20 1.16 1.27 1.09 1.05 1.08 1.18 1.33 1.28
0.11 0.10 0.10 0.11 0.15 0.17 0.16 0.18 0.27 0.29 0.34 0.35 0.37 0.43 0.54 0.69 0.87 1.01 1.02 1.03 1.02 0.93 0.80 0.75 0.72 0.73 0.83 0.90 0.93 0.92 0.94 0.99 1.05 1.03 0.94 0.94 1.05 0.91 0.87 0.85 0.98 1.16 1.18
0.13 0.13 0.12 0.12 0.13 0.14 0.18 0.20 0.24 0.28 0.31 0.34 0.31 0.32 0.40 0.54 0.73 0.83 0.87 0.92 0.97 0.93 0.87 0.80 0.75 0.76 0.82 0.93 1.08 0.97 0.85 0.81 0.84 0.86 0.87 0.80 0.78 0.77 0.71 0.74 0.86 0.92 1.04
0.13 0.12 0.13 0.13 0.13 0.15 0.18 0.22 0.27 0.28 0.28 0.29 0.30 0.29 0.30 0.34 0.44 0.53 0.61 0.70 0.76 0.78 0.78 0.78 0.76 0.77 0.77 0.76 0.87 0.93 0.85 0.75 0.71 0.68 0.62 0.61 0.63 0.66 0.66 0.67 0.69 0.75 0.97
0.14 0.13 0.14 0.16 0.16 0.17 0.18 0.20 0.24 0.28 0.28 0.29 0.31 0.31 0.33 0.37 0.40 0.43 0.47 0.52 0.56 0.67 0.74 0.74 0.77 0.75 0.73 0.74 0.84 0.84 0.82 0.83 0.85 0.85 0.73 0.66 0.63 0.62 0.65 0.66 0.70 0.82 0.94
0.14 0.16 0.18 0.19 0.17 0.18 0.19 0.19 0.20 0.23 0.25 0.27 0.27 0.27 0.29 0.33 0.35 0.38 0.42 0.47 0.48 0.56 0.59 0.60 0.61 0.58 0.64 0.72 0.70 0.70 0.73 0.78 0.85 0.89 0.84 0.82 0.79 0.77 0.74 0.73 0.70 0.71 0.80